Abingdon, VA (24210)

3:04 PM EDT on August 28, 2016 (GMT -0400)
Country Club Estates | | Change Station

Elev 1990 ft 36.69 °N, 81.97 °W | Updated 3 seconds ago

Scattered Clouds
Scattered Clouds
87.8 °F
Feels Like 95 °F
N
6.0
Wind Variable Wind from East
Gusts 6.0 mph

Today
High -- | Low -- °F
--% Chance of Precip.
Yesterday
High -- | Low -- °F
Precip. -- in
Pressure 30.23 in
Visibility 10.0 miles
Clouds Scattered Clouds 4800 ft
Heat Index 95 °F
Dew Point 72 °F
Humidity 60%
Rainfall 0.00 in
Snow Depth Not available.
6:56 AM 8:01 PM
Waning Crescent, 14% visible
METAR KVJI 281855Z AUTO 13008KT 10SM SCT048 32/20 A3023 RMK AO2 LTG DSNT NW T03200201
Pressure 30.23 in
Visibility 10.0 miles
Clouds Scattered Clouds 4800 ft
Heat Index 95 °F
Dew Point 72 °F
Humidity 60%
Rainfall 0.00 in
Snow Depth Not available.
6:56 AM 8:01 PM
Waning Crescent, 14% visible
METAR KVJI 281855Z AUTO 13008KT 10SM SCT048 32/20 A3023 RMK AO2 LTG DSNT NW T03200201

10-Day Weather Forecast

Almanac

Astronomy

Aug. 28, 2016 Rise Set
Actual Time
Civil Twilight
Nautical Twilight
Astronomical Twilight
Moon
Length of Visible Light
Length of Day
Tomorrow will be .
, % of the Moon is Illuminated

Today's Extremes

State Highs State Lows

Community

WunderPhotos

Upload Photos

1,935,660 photos uploaded!

WunderBlog® & News

Nearby

Air Quality

  Air Quality AQ Index Pollutant
Not available.

Snow Depth

Station Depth Elevation

Earthquake Activity

City Distance Mag. Time & Date
Minimum magnitude displayed is 2.5.

Coastal Water Temperatures

Place Temperature

Stations

Nearby Weather Stations

Station Location Temp. Windchill Dew Point Humidity Wind Precip. Elev Updated Type
                   

Watches & Warnings

There are currently no watches in effect.